2022-121B (53949 NORAD) Tracking and Keplerian Element Data

This shows tracking and keplerian element data for the satellite.

Feedback or suggestion? Click here.




ElementValue
Catalog53949
Name2022-121B
Epoch Orbit839
Epoch Day325.2920319
Epoch Year2022
RAAN345.0961
Inclination97.4488
Eccentricity0.0013691
Argument of Perigee81.7958
Mean Anonmoly49.6299
Mean Motion15.18567503
Decay Rate4.316E-05
L11 53949U 22121B 22325.29203190 .00004316 00000+0 21167-3 0 9991
L22 53949 97.4488 345.0961 0013691 81.7958 49.6299 15.18567503 8398



Live tracking and technical data element details for 2022-121B (NORAD 53949). 2022-121B can be tracked NOW for your location showing map with azimuth and elevation plus other details from your city location.







IsCatalogInMostPopularTable: catalog: 53949, numindb: 2
Update: records affected: 1



GetName: 53949 2022-121B

Hit Count: updated at: Thu, 08 Dec 2022 09:45:38 GMT